Airfield :
LOGIN :

Register | Disclaimer

   EN    FR    IT 

 










Legend :    VFR   Marginal VFR   IFR   Intensive IFR   Very Intensive IFR
Visi :
Ceiling :
>= 8 km
>= 3000ft
5 to 8 km
1000 to 3000 ft
1500m to 5 km
500 to 1000 ft
800 to 1500m
200 to 500 ft
< 800m
< 200 ft
Symbols :   Thunderstorms  Fog  Heavy snow  Heavy precipitations  Wind > 20 kt
SIGMETs :     Misc.  Thunderstorms  Icing  Turbulence  Mountain Waves  Volcanic Ashes






- Airport Elevation : 424 ft
- IATA code : QGY


LHPR - Györ Per

CURRENT METAR :
  • 152045Z AUTO 13018KT 9000 NSC 12/10 Q1010

EXPIRED METARs :
  • 152015Z AUTO 14014KT 8000 FEW010 BKN084 12/10 Q1011
  • 151945Z AUTO 14017KT 8000 BKN011 BKN080 11/10 Q1011
  • 151915Z AUTO 13017KT 8000 BKN010 11/09 Q1011
  • 151845Z AUTO 12015KT 9000 FEW012 BKN081 10/09 Q1010
  • 151815Z AUTO 12015KT 9000 SCT012 10/08 Q1011

TAF TAF LHPR
Valid from the 15 at 18:00 until the 16 at 03:00 UTC


151715Z 1518/1603 12016KT 5000 BR BKN015
TEMPO 1518/1603 3000 BR OVC010



MET'MAP, your aeronautical weather chart ! - Copyright ORBIFLY December 2007 - Disclaimer

ORBIFLY MET'MAP TEAM :

Programming & Development : Alexandra Zaïnal
Concept & Development : Baudouin d'Aumeries
Co-Development & Prog : Marc-Olivier Méhu
Technical & hardware support : Manuel Goepfert

Contact : metmap@orbifly.com




SOURCES & CREDITS :

   NOAA